AJ5TT Weather Reports


time (UTC)temp
C
wind
direction
speed
KPH
gust
KPH
rain 1hr
cm
rain 24hr
cm
rain mn
cm
humidity
%
barometer
mb
20260904131606 26 0 0.0 0.0 0.00 0.00 0.00 93 1014.8
20260904130059 26 0 0.0 0.0 0.00 0.00 0.00 93 1014.7
20260904124611 26 0 0.0 0.0 0.00 0.00 0.00 93 1014.6
20260904123104 26 0 0.0 0.0 0.00 0.00 0.00 94 1014.2
20260904121604 25 0 0.0 0.0 0.00 0.00 0.00 93 1014.0
20260904120107 25 0 0.0 0.0 0.00 0.00 0.00 93 1014.0
20260904114608 25 0 0.0 0.0 0.00 0.00 0.00 93 1013.9
20260904113105 25 0 0.0 0.0 0.00 0.00 0.00 93 1014.0
20260904111606 25 0 0.0 0.0 0.00 0.00 0.00 93 1014.1
20260904110104 25 0 0.0 0.0 0.00 0.00 0.00 92 1014.0
20260904104559 26 0 0.0 0.0 0.00 0.00 0.00 92 1013.9
20260904103103 26 0 0.0 0.0 0.00 0.00 0.00 92 1013.9
20260904101609 26 0 0.0 0.0 0.00 0.00 0.00 92 1013.7
20260904094608 26 0 0.0 0.0 0.00 0.00 0.00 92 1013.5
20260904093106 26 0 0.0 0.0 0.00 0.00 0.00 92 1013.4
20260904091601 26 0 0.0 0.0 0.00 0.00 0.00 92 1013.3
20260904090056 26 0 0.0 0.0 0.00 0.00 0.00 92 1013.4
20260904084605 26 0 0.0 0.0 0.00 0.00 0.00 91 1013.3
20260904083110 26 0 0.0 0.0 0.00 0.00 0.00 90 1013.3
20260904081555 26 0 0.0 0.0 0.00 0.00 0.00 90 1013.3
20260904080104 26 0 0.0 0.0 0.00 0.00 0.00 89 1013.4
20260904074604 26 0 0.0 0.0 0.00 0.00 0.00 88 1013.5
20260904073105 27 0 0.0 0.0 0.00 0.00 0.00 88 1013.6
20260904071606 27 0 0.0 0.0 0.00 0.00 0.00 87 1013.5
20260904070109 27 0 0.0 4.8 0.00 0.00 0.00 86 1013.6
20260904064623 27 180 0.0 6.4 0.00 0.00 0.00 86 1013.7
20260904063110 27 186 0.0 3.2 0.00 0.00 0.00 86 1013.6
20260904061605 27 182 0.0 3.2 0.00 0.00 0.00 86 1013.7
20260904060123 27 0 0.0 4.8 0.00 0.00 0.00 87 1013.7
20260904054606 27 176 0.0 4.8 0.00 0.00 0.00 87 1013.8
20260904053102 27 0 0.0 0.0 0.00 0.00 0.00 88 1013.9
20260904051609 27 0 0.0 0.0 0.00 0.00 0.00 88 1013.8
20260904044606 27 0 0.0 0.0 0.00 0.00 0.00 87 1013.8
20260904043112 27 0 0.0 3.2 0.00 0.00 0.00 87 1013.7
20260904041601 27 177 0.0 3.2 0.00 0.00 0.00 87 1013.7
20260904040109 27 186 0.0 3.2 0.00 0.00 0.00 86 1013.8
20260904034603 27 0 0.0 3.2 0.00 0.00 0.00 86 1013.9
20260904033101 27 0 0.0 3.2 0.00 0.00 0.00 85 1013.8
20260904031610 27 0 0.0 0.0 0.00 0.00 0.00 85 1014.0
20260904030104 27 0 0.0 0.0 0.00 0.00 0.00 86 1014.1
20260904024609 27 0 0.0 0.0 0.00 0.00 0.00 86 1013.9
20260904023101 27 0 0.0 0.0 0.00 0.00 0.00 85 1013.9
20260904021608 28 0 0.0 3.2 0.00 0.00 0.00 85 1013.7
20260904020106 28 0 0.0 3.2 0.00 0.00 0.00 84 1013.6
20260904014602 28 0 0.0 3.2 0.00 0.00 0.00 84 1013.4
20260904013126 28 0 0.0 3.2 0.00 0.00 0.00 84 1013.2
20260904011606 28 0 0.0 3.2 0.00 0.00 0.00 84 1013.1
20260904004558 28 0 0.0 3.2 0.00 0.00 0.00 82 1013.1
20260904003105 28 0 0.0 3.2 0.00 0.00 0.00 81 1013.0
20260904001610 28 0 0.0 3.2 0.00 0.00 0.00 81 1013.2
20260904000103 28 284 0.0 3.2 0.00 0.00 0.00 80 1013.4
20260903234612 28 0 0.0 3.2 0.00 0.00 0.00 80 1013.3
20260903233106 29 0 0.0 3.2 0.00 0.00 0.00 81 1013.3
20260903231609 29 13 0.0 4.8 0.00 0.00 0.00 82 1013.0
20260903230108 29 333 1.6 6.4 0.00 0.00 0.00 82 1012.9
20260903224600 30 34 1.6 6.4 0.00 0.00 0.00 80 1013.2
20260903223056 30 57 3.2 9.7 0.00 0.00 0.00 80 1013.3
20260903221603 30 74 1.6 6.4 0.00 0.00 0.00 80 1013.4
20260903220104 30 67 4.8 9.7 0.00 0.00 0.00 79 1013.6
20260903214600 29 24 1.6 4.8 0.00 0.00 0.00 82 1013.8
20260903213113 29 51 1.6 6.4 0.00 0.00 0.00 82 1014.2
20260903211603 30 28 3.2 8.0 0.00 0.00 0.00 76 1014.3
20260903204559 29 49 0.0 11.3 0.00 0.00 0.00 78 1014.3
20260903203107 28 44 3.2 14.5 0.00 0.00 0.00 79 1014.2
20260903201625 28 42 3.2 12.9 0.00 0.00 0.00 77 1013.8
20260903200104 28 95 3.2 14.5 0.00 0.00 0.00 79 1014.0
20260903194559 29 86 4.8 17.7 0.00 0.00 0.00 72 1014.4
20260903193114 31 53 8.0 17.7 0.00 0.00 0.00 64 1014.5
20260903191603 33 174 1.6 4.8 0.00 0.00 0.00 63 1014.0
20260903190103 33 319 1.6 8.0 0.00 0.00 0.00 68 1014.2
20260903184609 34 287 1.6 9.7 0.00 0.00 0.00 62 1014.2
20260903183106 33 261 1.6 6.4 0.00 0.00 0.00 67 1014.5
20260903181602 33 204 0.0 4.8 0.00 0.00 0.00 68 1014.5
20260903180111 32 38 3.2 8.0 0.00 0.00 0.00 67 1014.9
20260903174558 32 101 3.2 11.3 0.00 0.00 0.00 69 1015.0
20260903173111 32 184 4.8 11.3 0.00 0.00 0.00 68 1015.1
20260903171603 32 205 4.8 12.9 0.00 0.00 0.00 70 1015.2
20260903170104 31 214 1.6 4.8 0.00 0.00 0.00 75 1015.4
20260903164600 30 230 1.6 6.4 0.00 0.00 0.00 76 1015.5
20260903163138 30 242 1.6 4.8 0.00 0.00 0.00 77 1015.4
20260903161606 30 215 0.0 3.2 0.00 0.00 0.00 79 1015.4
20260903160107 29 0 0.0 4.8 0.00 0.00 0.00 80 1015.3
20260903154555 28 11 3.2 6.4 0.00 0.00 0.00 82 1015.3
20260903153105 28 55 1.6 3.2 0.00 0.00 0.00 81 1015.3
20260903151604 28 58 0.0 3.2 0.00 0.00 0.00 83 1015.2
20260903150105 28 59 0.0 3.2 0.00 0.00 0.00 83 1015.2
20260903144557 27 0 0.0 0.0 0.00 0.00 0.00 84 1015.2
20260903143105 27 0 0.0 0.0 0.00 0.00 0.00 84 1015.3
20260903141607 27 0 0.0 0.0 0.00 0.00 0.00 85 1015.4
20260903140105 27 0 0.0 0.0 0.00 0.00 0.00 85 1015.3
20260903134620 27 0 0.0 0.0 0.00 0.00 0.00 85 1015.6
20260903133107 26 0 0.0 0.0 0.00 0.00 0.00 85 1015.5